DELTA 1 DEB, 1312

Orbit data source: Space-Track

DELTA 1 DEB, 1312 is space debris in SSO originally from a launch on Fri, 22 Jan 1965 UTC launched from the Air Force Eastern Test Range (AFETR). Debris objects in space refer to the collection of defunct objects orbiting the Earth. Examples of debris include non-operational satellites, rocket bodies, and fragments generated from explosions, collisions, or faulty payload assembly.

Loading next visibility...
Identifier
1312, 1965-004C
Orbit
SSO
Country
Flag of USUS
Related business
Manufacturer
Unknown
Mission
Spacecraft
Bus & Motor
Unknown
Mass
~1 kg wet, ~1 kg dry
Launch date (UTC)
1965-01-22 (61 years ago)
Launch vehicle
Unknown
Launch site
Air Force Eastern Test Range (AFETR)
Object type
Payload
Rocket body
Debris
Shape & HBR
Unknown
Radar Cross Section
Medium (>0.1 m² and <1 m²)

Expand to show TLE details & history
Last TLE update: 1 day ago

TLE from 1 day ago
0 DELTA 1 DEB
1 01312U 65004C   26201.89473974  .00000120  00000-0  13110-3 0  9996
2 01312  96.3329 182.9416 1117209  39.7479 328.0278 12.28268204730726
Epoch: 2026-07-20T21:28Z
TLE epoch observation values (Epoch: 2026-07-20T21:28:25.513Z)
Latitude
-0.00002°
Longitude
-77.83693°
Altitude
839.485 km
Speed
7.763 km/s
True Right ascension
12h 11m 45s
True Declination
0° 00' 00"
Sunlit
Object was in daylight at epoch
Visualization orbit readout
Latitude
Unknown
Longitude
Unknown
Altitude
Unknown
Speed
Unknown
Apparent Right ascension
Unknown
Apparent Declination
Unknown
Sunlit
N/A
Visualization observer readout
Local Sidereal Time
17:31:34
Azimuth
Unknown
Elevation
Unknown
Doppler factor
Unknown
Orbital elements
Apogee altitude
2,440.199 km
Perigee altitude
667.825 km
Semi-major axis
7,932.149 km
Eccentricity
0.11172
Inclination
96.3329°
RAAN
182.9416°
Arg. of periapsis
39.7479°
True anomaly
320.36679°
Mean anomaly
328.0278°
Eccentric anomaly
324.29172°
Mean motion
3.07225 °/min
Orbital period
117.18 mins
BSTAR
0.0001311
Loading maneuver chart data...
Computing Atmospheric mass density...
Loading historical data...
Loading historical data...
Loading historical data...
Loading historical data...
Loading historical data...
Loading historical data...
Loading historical data...
Other satellites on launch #4 in the year 1965 (1965-01-22 UTC)

Documentation

Showing up to 5 results
|